Location: Balsareny
(41.8670°N, 1.8830°E)
Time: 13:24:55
(UTC+02:00)

Envisat - Visible Passes

Search period start: 25 September 2022 00:00
Search period end: 05 October 2022 00:00
Orbit: 764 x 765 km, 98.2° (Epoch: 24 September)

Date Brightness Start Highest point End Pass type
(mag) Time Alt. Az. Time Alt. Az. Time Alt. Az.
25 Sep 3.5 05:59:41 10° NNE 06:04:43 59° E 06:09:42 10° S visible
26 Sep 5.0 05:23:20 10° NE 05:27:35 26° E 05:31:48 10° SSE visible
26 Sep 3.6 07:02:00 10° N 07:06:38 37° WNW 07:11:15 10° SW visible
27 Sep 5.9 04:48:31 10° ENE 04:50:14 12° E 04:51:56 10° ESE visible
27 Sep 2.9 06:24:44 10° N 06:29:50 81° WNW 06:34:54 10° SSW visible
28 Sep 4.0 05:47:57 10° NNE 05:52:50 45° E 05:57:41 10° S visible
29 Sep 5.4 05:11:51 10° NE 05:15:38 21° E 05:19:23 10° SE visible
29 Sep 3.3 06:50:00 10° N 06:54:51 47° WNW 06:59:41 10° SW visible
30 Sep 3.1 06:12:53 10° NNE 06:17:59 80° ESE 06:23:04 10° S visible
01 Oct 4.5 05:36:16 10° NNE 05:40:56 35° E 05:45:33 10° SSE visible
01 Oct 3.9 07:15:30 10° N 07:19:47 28° WNW 07:24:03 10° SW visible
02 Oct 5.7 05:00:33 10° NE 05:03:39 16° E 05:06:45 10° SE visible
02 Oct 3.0 06:38:03 10° N 06:43:03 60° WNW 06:48:01 10° SSW visible
03 Oct 3.4 06:01:05 10° NNE 06:06:08 62° ESE 06:11:08 10° S visible
04 Oct 4.9 05:24:39 10° NE 05:28:59 28° E 05:33:18 10° SSE visible
04 Oct 3.6 07:03:26 10° N 07:08:01 35° WNW 07:12:35 10° SW visible
